Location: Kellogg
(38.0159°N, 90.0546°W)
Time: 08:06:15
(UTC+00:00)

Vanguard 1 Rocket - Pass Details

Date: 16 September 2024
Orbit: 650 x 4218 km, 34.3° (Epoch: 05 October)

Event Time Altitude Azimuth Distance (km) Brightness Sun altitude
Rises 16:18:31 0° 287° (WNW) 8,008 11.9 48.0°
Reaches altitude 10° 16:24:25 10° 280° (W) 7,233 11.8 48.7°
Maximum altitude 16:46:11 37° 224° (SW) 5,279 11.9 50.9°
Drops below altitude 10° 17:04:30 10° 165° (SSE) 6,064 12.4 52.4°
Sets 17:09:00 0° 157° (SSE) 6,644 12.4 52.7°
